Weather History for Hayward, WI

Change the Weather History Date:

Wednesday, January 23, 2013

  Actual Average Record
Temperature  
Mean Temperature -2 °F -  
Max Temperature 10 °F 26 °F 33 °F (2006)
Min Temperature -15 °F 6 °F -26 °F (2011)
Degree Days  
Heating Degree Days 68    
Moisture  
Dew Point -9 °F    
Average Humidity 70    
Maximum Humidity 85    
Minimum Humidity 50    
Precipitation  
Precipitation 0.00 in - - ()
Sea Level Pressure  
Sea Level Pressure 30.21 in    
Wind  
Wind Speed 2 mph (WNW)    
Max Wind Speed 10 mph    
Max Gust Speed 23 mph    
Visibility 5 miles    
Events Snow    
Averages and records for this station are not official NWS values.
T = Trace of Precipitation, MM = Missing Value Source: NWS Daily Summary

Daily Weather History Graph

Daily Weather History Graph

Search for Another Location

Airport:

Trip Planner

Search our weather history database for the weather conditions in past years. The results will help you decide how hot, cold, wet, or windy it might be!

Date:

Astronomy

Jan. 23, 2013 Rise Set
Actual Time 7:37 AM CST 4:58 PM CST
Civil Twilight 7:04 AM CST 5:31 PM CST
Nautical Twilight 6:28 AM CST 6:07 PM CST
Astronomical Twilight 5:52 AM CST 6:43 PM CST
Moon 2:06 PM CST (1/23) 4:51 AM CST (1/23)
Length of Visible Light 10h 26m
Length of Day
9h 21m
Waxing Gibbous, 89% of the Moon is Illuminated
Jan 23
Waxing Gibbous
Jan 26
Full
Feb 3
Last Quarter
Feb 10
New
Feb 17
First Quarter

Hourly Weather History & Observations

Time (CST) Temp. Windchill Dew Point Humidity Pressure Visibility Wind Dir Wind Speed Gust Speed Precip Events Conditions
12:53 AM -14.1 °F - -20.9 °F 71% 30.28 in 6.0 mi Calm Calm - N/A   Haze
1:53 AM -15.0 °F - -20.9 °F 75% 30.27 in 10.0 mi Calm Calm - N/A   Overcast
2:53 AM -13.0 °F - -18.9 °F 75% 30.27 in 10.0 mi Calm Calm - N/A   Overcast
3:53 AM -11.9 °F - -18.0 °F 74% 30.25 in 10.0 mi Calm Calm - N/A   Overcast
4:53 AM -11.0 °F - -17.0 °F 75% 30.24 in 7.0 mi Calm Calm - N/A   Overcast
5:53 AM -11.0 °F - -17.0 °F 75% 30.23 in 5.0 mi Calm Calm - 0.00 in Snow Light Snow
6:15 AM -9.4 °F - -16.6 °F 71% 30.09 in 2.5 mi Calm Calm - 0.00 in   Haze
6:25 AM -9.4 °F - -16.6 °F 71% 30.09 in 5.0 mi Calm Calm - 0.00 in   Haze
6:53 AM -9.9 °F - -16.1 °F 74% 30.21 in 5.0 mi Calm Calm - 0.00 in   Haze
7:53 AM -8.0 °F - -13.0 °F 79% 30.20 in 3.0 mi Calm Calm - N/A   Haze
8:13 AM -5.8 °F - -11.2 °F 77% 30.07 in 2.0 mi Calm Calm - 0.00 in Snow Light Snow
8:24 AM -5.8 °F - -11.2 °F 77% 30.07 in 1.5 mi Calm Calm - 0.00 in Snow Light Snow
8:35 AM -4.0 °F - -9.4 °F 78% 30.07 in 1.2 mi Calm Calm - 0.00 in Snow Light Snow
8:53 AM -2.9 °F - -8.0 °F 79% 30.19 in 1.5 mi Calm Calm - 0.00 in Snow Light Snow
8:59 AM -2.2 °F - -7.6 °F 78% 30.07 in 2.0 mi Calm Calm - 0.00 in Snow Light Snow
9:03 AM -0.4 °F - -5.8 °F 78% 30.07 in 3.0 mi Calm Calm - 0.00 in   Haze
9:13 AM -0.4 °F -8.3 °F -5.8 °F 78% 30.07 in 1.8 mi SW 3.5 mph - 0.00 in Snow Light Snow
9:21 AM -0.4 °F -8.3 °F -5.8 °F 78% 30.08 in 3.0 mi SW 3.5 mph - 0.00 in   Haze
9:34 AM 1.4 °F -6.2 °F -4.0 °F 78% 30.07 in 1.8 mi Variable 3.5 mph - 0.00 in   Haze
9:44 AM 1.4 °F - -2.2 °F 85% 30.07 in 1.0 mi Calm Calm - 0.00 in Snow Light Snow
9:53 AM 3.0 °F - -2.0 °F 80% 30.18 in 0.8 mi Calm Calm - 0.00 in Snow Light Snow
10:05 AM 3.2 °F -6.2 °F -2.2 °F 78% 30.07 in 1.0 mi Variable 4.6 mph - 0.00 in Snow Light Snow
10:14 AM 3.2 °F -6.2 °F -0.4 °F 85% 30.07 in 1.5 mi WSW 4.6 mph - 0.00 in   Haze
10:29 AM 5.0 °F -4.1 °F -0.4 °F 78% 30.07 in 2.5 mi Variable 4.6 mph - 0.00 in   Haze
10:37 AM 5.0 °F -2.1 °F -0.4 °F 78% 30.07 in 3.0 mi Variable 3.5 mph - 0.00 in   Haze
10:53 AM 7.0 °F -5.7 °F -0.0 °F 73% 30.18 in 4.0 mi West 8.1 mph - 0.00 in   Haze
11:32 AM 8.6 °F -2.6 °F -0.4 °F 67% 30.06 in 6.0 mi West 6.9 mph - 0.00 in   Haze
11:53 AM 10.0 °F -2.9 °F -0.0 °F 64% 30.17 in 10.0 mi WNW 9.2 mph - 0.00 in   Overcast
12:07 PM 8.6 °F -3.7 °F -2.2 °F 62% 30.05 in 10.0 mi WNW 8.1 mph - N/A   Overcast
12:37 PM 8.6 °F -3.7 °F -0.4 °F 67% 30.06 in 1.8 mi WNW 8.1 mph 17.3 mph 0.00 in Snow Light Snow
12:50 PM 8.6 °F 0.1 °F -0.4 °F 67% 30.06 in 0.8 mi Variable 4.6 mph 17.3 mph 0.00 in Snow Light Snow
12:53 PM 9.0 °F -0.9 °F 1.0 °F 70% 30.17 in 0.5 mi Variable 5.8 mph - 0.00 in Snow Snow
1:16 PM 8.6 °F -4.7 °F -0.4 °F 67% 30.07 in 1.2 mi NW 9.2 mph 21.9 mph 0.00 in Snow Light Snow
1:18 PM 8.6 °F -2.6 °F -0.4 °F 67% 30.07 in 3.0 mi Variable 6.9 mph 21.9 mph 0.00 in Snow Light Snow
1:35 PM 8.6 °F -1.3 °F -0.4 °F 67% 30.07 in 2.5 mi Variable 5.8 mph - 0.00 in Snow Light Snow
1:44 PM 8.6 °F -5.5 °F -4.0 °F 57% 30.07 in 4.0 mi WNW 10.4 mph 19.6 mph 0.00 in Snow Light Snow
1:53 PM 8.1 °F -3.2 °F -2.9 °F 61% 30.19 in 2.5 mi Variable 6.9 mph - 0.00 in Snow Light Snow
2:01 PM 8.6 °F -2.6 °F -0.4 °F 67% 30.08 in 1.5 mi Variable 6.9 mph - 0.00 in Snow Light Snow
2:36 PM 6.8 °F -6.9 °F -5.8 °F 56% 30.12 in 3.0 mi NNW 9.2 mph 20.7 mph 0.00 in Snow Light Snow
2:48 PM 6.8 °F -7.8 °F -7.6 °F 52% 30.13 in 10.0 mi NW 10.4 mph 23.0 mph 0.00 in   Mostly Cloudy
2:53 PM 7.0 °F -3.3 °F -8.0 °F 51% 30.25 in 10.0 mi Variable 5.8 mph 23.0 mph 0.00 in   Mostly Cloudy
3:53 PM 3.0 °F -9.3 °F -11.9 °F 50% 30.33 in 10.0 mi Variable 6.9 mph 21.9 mph 0.00 in   Overcast
4:21 PM -0.4 °F -14.7 °F -14.8 °F 51% 30.25 in 10.0 mi NW 8.1 mph 19.6 mph N/A   Mostly Cloudy
4:36 PM -0.4 °F -14.7 °F -14.8 °F 51% 30.27 in 10.0 mi NW 8.1 mph - N/A   Overcast
4:53 PM -0.9 °F -12.7 °F -14.1 °F 54% 30.41 in 10.0 mi Variable 5.8 mph - N/A   Overcast
5:36 PM -2.2 °F -14.2 °F -14.8 °F 55% 30.33 in 10.0 mi Variable 5.8 mph - N/A   Mostly Cloudy
5:53 PM -2.9 °F -15.0 °F -13.0 °F 62% 30.46 in 8.0 mi Variable 5.8 mph - N/A   Overcast
6:42 PM -5.8 °F -18.4 °F -13.0 °F 71% 30.39 in 10.0 mi Variable 5.8 mph - N/A   Scattered Clouds
6:53 PM -5.1 °F -17.6 °F -13.0 °F 69% 30.52 in 10.0 mi Variable 5.8 mph - N/A   Partly Cloudy
7:53 PM -6.0 °F -16.9 °F -13.0 °F 72% 30.54 in 10.0 mi NNW 4.6 mph - N/A   Clear
8:53 PM -7.1 °F - -13.0 °F 75% 30.56 in 10.0 mi Calm Calm - N/A   Clear
9:53 PM -7.1 °F - -14.1 °F 72% 30.57 in 10.0 mi Calm Calm - N/A   Clear
10:53 PM -9.0 °F - -15.0 °F 75% 30.61 in 10.0 mi Calm Calm - N/A   Clear
11:53 PM -13.0 °F - -18.0 °F 78% 30.64 in 10.0 mi Calm Calm - N/A   Clear